This is the latest recevied weather packets stored in our database for station/object K4XP. If no packets are shown the sender has not sent any weather packets the latest 10 day(s).
| Time | Temp. | Humidity | Pressure | Rain* | Wind** | Luminosity | Snow |
|---|---|---|---|---|---|---|---|
| 1777904725 | 17.78° C | 48% | 1017.5 hPa | 0 mm | - | - | - |
| 1777904422 | 17.78° C | 55% | 1017.5 hPa | 0 mm | - | - | - |
| 1777904118 | 17.22° C | 53% | 1017.6 hPa | 0 mm | - | - | - |
| 1777903817 | 17.22° C | 56% | 1017.6 hPa | 0 mm | - | - | - |
| 1777903513 | 17.22° C | 58% | 1017.6 hPa | 0 mm | - | - | - |
| 1777903229 | 16.67° C | 57% | 1017.5 hPa | 0 mm | - | - | - |
| 1777902925 | 16.67° C | 58% | 1017.5 hPa | 0 mm | - | - | - |
| 1777902622 | 16.11° C | 60% | 1017.5 hPa | 0 mm | - | - | - |
| 1777902318 | 16.11° C | 61% | 1017.4 hPa | 0 mm | - | - | - |
| 1777902014 | 15.56° C | 65% | 1017.4 hPa | 0 mm | - | - | - |
| 1777901715 | 15° C | 67% | 1017.4 hPa | 0 mm | - | - | - |
| 1777901411 | 14.44° C | 72% | 1017.4 hPa | 0 mm | - | - | - |
| 1777901127 | 14.44° C | 70% | 1017.4 hPa | 0 mm | - | - | - |
| 1777900822 | 13.89° C | 71% | 1017.3 hPa | 0 mm | - | - | - |
| 1777900519 | 13.33° C | 72% | 1017.3 hPa | 0 mm | - | - | - |
| 1777900214 | 13.33° C | 72% | 1017.2 hPa | 0 mm | - | - | - |
| 1777899910 | 12.78° C | 73% | 1017.1 hPa | 0 mm | - | - | - |
| 1777899612 | 12.22° C | 75% | 1017 hPa | 0 mm | - | - | - |
| 1777899327 | 12.22° C | 75% | 1016.9 hPa | 0 mm | - | - | - |
| 1777899024 | 11.67° C | 77% | 1016.9 hPa | 0 mm | - | - | - |
| 1777898720 | 11.67° C | 79% | 1016.9 hPa | 0 mm | - | - | - |
| 1777898416 | 11.11° C | 80% | 1016.8 hPa | 0 mm | - | - | - |
| 1777898112 | 10.56° C | 82% | 1016.8 hPa | 0 mm | - | - | - |
| 1777897828 | 10.56° C | 83% | 1016.8 hPa | 0 mm | - | - | - |
| 1777897528 | 10° C | 86% | 1016.9 hPa | 0 mm | - | - | - |
* Rain latest hour (hover to see other rain measurements)
** Current wind speed in m/s (hover to see current wind gust speed)